Wind_Speed
21 20 19 19 19 18 19 18 17 17 18 16 15 14 14 14 14 15 15 14 14 13 12 9 9 10 10 11 13 15 17 18 18 17 16 16 15 14 14 13 12 11 10 8
21 19 19 20 19 19 19 18 16 16 17 16 15 14 15 15 15 15 14 14 13 12 11 8 8 9 11 11 12 14 15 17 18 18 17 16 15 15 13 13 12 11 10 8
19 19 20 21 20 19 19 17 16 16 17 16 15 13 13 14 14 13 13 13 13 12 8 7 8 9 10 11 13 14 15 16 18 17 17 17 16 14 13 12 12 11 10 9
20 21 21 22 21 20 19 18 17 17 18 16 15 12 11 13 13 13 13 13 13 11 8 7 8 9 9 10 11 12 15 15 16 16 17 17 15 15 13 13 11 11 11 10
20 21 22 22 21 20 18 19 19 19 19 16 15 15 12 13 13 14 14 13 13 11 8 6 7 8 8 9 10 12 14 15 16 16 17 17 16 16 15 14 12 12 11 10
21 22 22 21 21 21 20 21 20 19 19 16 15 15 12 13 14 13 13 13 13 11 8 7 7 8 9 10 11 12 13 14 15 16 17 16 16 17 16 14 13 13 12 11
21 22 21 21 22 22 22 21 21 20 19 16 15 15 13 13 13 12 12 12 11 10 8 8 8 9 10 10 11 13 13 14 16 16 16 16 17 17 16 15 14 14 13 11
20 20 21 21 21 21 22 22 22 21 18 16 15 15 13 12 11 11 11 11 10 9 8 9 10 10 10 10 11 12 13 14 15 16 16 17 18 18 17 16 15 15 13 11
18 19 20 21 22 23 23 23 22 22 20 18 16 13 12 10 11 10 10 10 10 9 8 9 10 10 10 10 11 12 13 14 15 17 17 18 18 18 18 17 16 15 14 12
18 18 20 21 23 24 24 24 23 22 21 19 16 13 13 11 10 10 10 9 8 9 8 9 10 10 9 10 10 11 12 13 15 17 18 18 18 18 18 17 16 15 14 13
19 19 20 21 23 24 25 25 24 24 22 20 17 13 12 11 11 11 10 10 10 9 10 11 11 11 10 10 10 11 12 13 15 17 18 18 18 18 18 17 16 16 15 14
19 20 21 22 23 25 26 26 25 25 23 21 18 12 12 11 12 12 11 10 10 10 10 11 12 12 11 11 11 11 12 13 15 17 18 18 18 18 17 16 16 15 14 13
22 22 22 23 24 25 26 27 27 26 25 23 19 14 13 13 13 12 12 11 11 10 10 11 11 12 13 12 12 13 13 13 16 17 17 18 18 18 17 17 16 15 14 14
24 24 24 24 25 25 26 26 27 27 25 23 20 16 15 15 14 14 13 13 12 11 11 11 12 12 13 14 14 13 14 15 16 18 18 18 18 18 17 17 16 15 14 13
26 25 25 25 25 26 27 27 28 27 26 24 21 18 16 16 15 14 14 14 13 13 12 12 13 13 13 14 14 14 13 15 15 18 18 19 19 18 18 17 17 15 15 14
27 27 27 26 26 27 28 28 28 28 27 24 22 18 18 17 17 16 15 15 14 14 13 13 14 14 14 14 14 14 14 15 16 17 18 18 18 18 18 18 17 16 16 16
28 28 27 27 27 28 28 27 28 29 28 26 23 20 20 18 18 18 18 18 17 17 16 16 15 15 15 15 15 15 16 16 17 18 18 18 18 19 19 19 18 18 18 18
28 28 28 28 28 29 26 27 27 27 27 26 23 21 21 20 20 20 19 19 19 19 19 18 17 17 17 17 17 17 17 17 17 19 20 20 20 20 20 20 20 20 20 20
27 27 27 27 27 26 24 24 25 25 25 24 22 21 21 21 21 21 20 20 20 20 20 19 19 20 20 19 19 19 18 18 18 19 20 21 21 21 22 22 22 22 22 22
24 23 23 23 24 23 22 23 24 24 23 23 22 21 21 22 22 22 22 21 21 21 20 20 21 21 21 21 21 20 19 19 20 20 21 21 22 23 23 23 23 23 23 24
21 21 21 21 21 21 21 20 21 22 21 22 22 21 22 22 23 23 23 23 23 22 21 21 22 23 23 23 23 22 21 21 21 22 22 22 22 23 23 24 24 24 25 25
20 20 20 20 20 19 19 19 20 20 20 21 21 21 21 22 23 24 23 24 24 24 23 24 24 24 24 25 24 23 23 23 24 23 24 24 24 24 25 25 26 27 27 27
20 20 18 18 18 18 18 19 20 20 20 20 21 21 21 21 23 24 24 25 25 25 24 24 24 25 25 25 25 25 24 25 25 25 25 25 26 27 27 27 27 28 29 29
19 18 18 17 17 17 18 18 19 19 20 20 21 21 21 22 23 24 26 26 25 25 25 24 25 26 25 25 26 26 26 27 27 26 26 26 26 27 28 28 29 30 30 31
19 18 18 17 17 17 18 18 17 18 19 20 20 21 22 23 23 24 25 25 25 25 25 24 24 24 25 26 26 26 26 27 28 28 28 28 28 29 30 30 31 31 32 33
19 19 17 17 17 17 17 17 17 17 18 19 19 20 21 22 22 23 25 26 26 26 25 25 26 25 26 27 27 28 28 28 28 29 29 30 30 31 31 31 32 33 34 35
Wind_Direction
258 256 253 251 248 247 249 249 250 250 256 260 264 269 279 289 294 299 303 304 302 300 293 282 255 241 226 217 209 207 209 210 211 210 210 211 212 213 213 215 217 220 224 225
253 250 246 245 245 244 245 246 248 249 254 260 267 276 284 289 293 297 301 304 304 297 295 277 246 227 217 214 208 205 204 205 205 206 206 208 208 205 209 212 213 214 211 213
248 242 241 241 240 240 243 245 246 248 253 261 271 277 283 286 289 292 299 303 303 301 294 266 232 219 223 215 208 206 205 205 203 205 205 206 204 204 207 210 211 210 208 207
240 238 239 239 238 238 239 243 246 250 254 258 269 276 282 286 286 285 290 298 303 296 281 258 231 226 222 210 206 202 204 202 199 202 201 202 202 204 205 206 207 205 204 204
235 235 236 236 237 237 234 238 245 251 256 260 269 278 283 286 289 292 292 296 300 290 273 251 226 217 213 210 208 205 205 204 202 199 199 202 203 203 202 202 204 201 201 202
231 232 233 231 232 234 234 240 248 255 260 263 271 281 284 285 288 290 291 294 294 283 267 244 227 214 209 207 206 203 203 207 200 198 201 204 205 204 202 202 202 198 198 197
228 230 229 229 230 235 238 244 252 257 260 266 274 280 286 285 284 288 290 291 287 272 260 241 228 216 207 205 206 206 204 203 199 201 204 205 204 202 200 200 199 196 195 194
226 226 228 229 230 234 238 245 252 259 264 266 273 281 287 286 282 284 286 286 281 264 255 239 228 220 212 208 206 203 203 203 204 205 204 202 200 199 197 198 197 196 197 198
223 222 226 228 230 232 235 242 251 258 264 267 270 277 279 282 283 278 280 283 280 264 254 232 225 217 213 212 207 204 204 204 203 202 201 200 198 198 197 198 196 196 198 201
225 222 223 228 231 234 238 244 249 255 264 267 270 276 273 272 279 274 274 273 269 258 248 226 219 215 214 212 208 204 202 202 202 201 200 199 198 197 197 198 198 199 201 203
227 227 226 229 232 236 240 244 248 254 262 268 271 271 271 269 269 268 267 265 259 255 250 236 226 216 214 213 212 208 203 204 202 201 201 201 199 196 197 199 201 202 205 209
234 234 232 234 236 239 242 246 250 254 259 266 269 265 268 266 267 265 261 256 255 253 246 236 227 221 217 215 215 212 209 207 204 201 201 199 199 198 199 201 202 205 210 215
241 240 240 240 241 241 245 249 253 257 259 262 266 267 265 260 258 260 257 247 248 248 243 238 234 226 221 217 217 217 215 211 207 205 202 201 200 200 203 205 206 210 215 220
248 248 248 247 247 246 248 251 255 257 259 262 262 262 260 257 253 253 248 242 242 243 240 241 235 231 227 219 215 218 218 213 209 208 206 204 204 204 207 209 211 214 219 225
250 252 253 252 250 249 250 252 254 256 259 262 261 258 254 253 249 248 244 242 242 241 238 237 236 233 229 222 218 217 215 211 210 207 207 207 207 209 212 215 217 221 227 233
252 251 253 253 253 253 252 253 254 256 258 260 256 252 252 250 246 246 245 243 243 242 238 237 235 234 231 224 219 216 214 213 212 209 208 208 210 213 216 220 223 229 236 241
252 253 253 253 253 255 255 255 255 257 256 255 253 247 247 246 242 242 241 242 243 240 236 236 235 233 229 224 221 220 217 214 211 210 212 214 216 219 223 227 231 237 242 246
253 252 253 255 257 258 260 256 256 256 255 253 249 243 243 242 240 239 239 240 239 236 233 234 234 232 229 227 225 224 223 221 219 217 218 220 222 226 229 233 237 241 246 249
253 254 255 255 257 258 258 256 254 254 253 251 247 244 242 237 237 238 238 236 235 235 235 235 231 230 230 229 228 227 226 225 226 226 227 227 230 233 235 237 241 244 248 252
251 253 257 257 256 256 254 254 253 252 250 248 246 244 242 236 235 237 236 233 233 234 237 236 233 232 231 232 232 230 230 229 228 229 230 232 235 237 240 243 246 250 253 256
248 251 255 257 256 254 252 251 250 248 247 246 245 243 241 236 233 234 234 234 233 233 237 240 239 236 233 233 234 233 234 232 231 232 234 237 240 243 246 249 251 253 257 260
246 250 253 256 255 252 250 247 247 246 244 244 243 242 239 234 230 232 233 233 231 233 239 242 242 238 236 234 234 235 236 236 237 239 240 242 244 246 249 252 254 256 259 262
245 249 254 255 254 250 248 247 246 244 243 242 240 238 237 235 232 231 233 233 233 235 237 241 239 237 237 235 235 236 238 240 241 243 245 247 248 249 250 253 257 259 261 264
243 245 249 252 251 249 247 244 242 243 240 238 238 237 238 235 232 231 231 233 234 235 237 239 240 235 235 236 237 237 239 241 244 245 247 250 252 252 253 256 260 262 264 267
241 243 246 247 246 244 247 245 244 243 240 239 238 236 235 234 233 232 232 233 233 235 235 235 236 235 236 236 237 239 241 243 246 248 250 252 254 256 258 260 262 264 266 269
239 242 243 243 242 243 245 245 245 245 244 241 239 237 235 234 234 234 234 234 233 234 236 237 236 236 236 237 239 240 242 244 247 250 254 255 257 259 260 262 264 266 269 270
Height
5827 5829 5830 5831 5831 5833 5834 5835 5837 5838 5837 5837 5837 5838 5838 5837 5836 5835 5834 5832 5830 5828 5826 5824 5825 5825 5826 5828 5830 5832 5835 5839 5842 5845 5848 5851 5854 5857 5859 5861 5863 5864 5866 5867
5823 5825 5825 5826 5827 5829 5830 5832 5833 5834 5834 5834 5834 5835 5835 5834 5833 5832 5831 5829 5827 5825 5823 5821 5821 5823 5825 5826 5828 5831 5833 5837 5840 5844 5847 5849 5852 5854 5857 5859 5861 5863 5865 5866
5818 5820 5820 5822 5824 5826 5827 5829 5830 5831 5831 5831 5831 5832 5832 5831 5830 5829 5828 5826 5825 5823 5821 5820 5820 5821 5823 5825 5827 5829 5832 5835 5838 5841 5844 5847 5850 5852 5855 5858 5860 5862 5863 5865
5813 5814 5816 5818 5820 5822 5824 5826 5827 5827 5828 5828 5829 5829 5829 5828 5827 5826 5825 5824 5823 5821 5820 5819 5819 5820 5821 5823 5825 5827 5830 5833 5836 5839 5842 5845 5848 5851 5854 5856 5858 5860 5862 5864
5809 5810 5812 5814 5817 5819 5821 5822 5823 5824 5824 5825 5826 5826 5827 5825 5824 5823 5822 5821 5820 5820 5819 5818 5818 5819 5820 5822 5824 5826 5828 5831 5834 5836 5840 5843 5846 5849 5852 5854 5857 5859 5861 5863
5804 5805 5808 5811 5814 5815 5817 5819 5820 5821 5822 5823 5823 5823 5823 5822 5821 5821 5820 5819 5818 5818 5817 5817 5817 5818 5820 5821 5823 5825 5827 5829 5832 5835 5838 5842 5844 5847 5850 5853 5855 5858 5860 5862
5800 5802 5804 5807 5809 5812 5814 5816 5817 5817 5819 5820 5820 5819 5821 5819 5818 5818 5817 5817 5816 5816 5816 5816 5816 5817 5819 5820 5822 5824 5826 5828 5831 5834 5837 5840 5842 5845 5848 5851 5854 5857 5859 5861
5796 5799 5801 5803 5806 5808 5810 5812 5814 5815 5816 5817 5817 5816 5818 5817 5816 5815 5815 5814 5814 5814 5815 5815 5815 5816 5818 5819 5821 5823 5825 5827 5830 5832 5835 5838 5840 5843 5847 5850 5853 5855 5858 5860
5792 5796 5798 5800 5802 5804 5806 5808 5810 5811 5812 5813 5814 5815 5815 5814 5813 5813 5812 5812 5812 5813 5813 5813 5814 5815 5817 5818 5820 5822 5824 5826 5828 5831 5833 5836 5839 5842 5845 5848 5851 5854 5856 5858
5789 5792 5794 5796 5798 5800 5803 5804 5806 5807 5808 5809 5811 5812 5812 5811 5811 5811 5810 5810 5810 5811 5812 5813 5814 5815 5817 5818 5819 5820 5822 5824 5827 5829 5832 5835 5838 5840 5844 5847 5850 5852 5855 5857
5785 5788 5790 5792 5794 5796 5798 5800 5801 5803 5804 5806 5807 5811 5809 5809 5808 5808 5808 5808 5808 5809 5810 5812 5813 5814 5816 5817 5818 5820 5821 5823 5825 5828 5831 5833 5836 5839 5842 5846 5848 5851 5853 5855
5780 5783 5785 5787 5789 5791 5793 5795 5797 5799 5800 5802 5803 5808 5806 5806 5805 5805 5805 5806 5806 5807 5808 5809 5811 5813 5814 5816 5817 5819 5820 5822 5824 5826 5829 5832 5835 5838 5841 5844 5846 5849 5851 5853
5776 5778 5780 5782 5786 5786 5787 5789 5792 5794 5796 5797 5799 5804 5803 5803 5802 5802 5803 5803 5804 5805 5806 5807 5809 5811 5812 5814 5816 5817 5818 5820 5822 5825 5828 5831 5834 5837 5840 5842 5845 5847 5849 5851
5770 5772 5775 5778 5779 5780 5782 5784 5786 5788 5790 5792 5795 5798 5799 5799 5799 5800 5800 5801 5802 5803 5804 5806 5807 5809 5810 5812 5813 5815 5816 5817 5820 5823 5826 5829 5832 5835 5838 5840 5842 5844 5846 5848
5764 5766 5768 5770 5772 5774 5776 5778 5780 5782 5784 5787 5790 5792 5794 5794 5796 5797 5798 5799 5800 5801 5802 5804 5806 5807 5808 5810 5811 5813 5813 5815 5818 5821 5823 5826 5830 5832 5835 5838 5840 5842 5844 5846
5757 5759 5761 5764 5765 5767 5769 5772 5774 5776 5778 5780 5783 5787 5788 5789 5791 5793 5794 5796 5797 5798 5800 5801 5803 5804 5805 5807 5809 5811 5812 5814 5816 5819 5822 5824 5827 5830 5833 5835 5837 5839 5841 5842
5750 5752 5755 5757 5758 5760 5762 5765 5767 5769 5771 5774 5777 5781 5782 5784 5786 5788 5790 5791 5793 5795 5796 5798 5800 5801 5802 5805 5807 5809 5810 5812 5814 5817 5819 5822 5825 5827 5830 5832 5834 5836 5837 5839
5744 5746 5748 5750 5753 5753 5758 5758 5759 5761 5764 5767 5770 5773 5776 5778 5780 5782 5785 5787 5788 5790 5792 5794 5796 5798 5799 5801 5804 5806 5807 5809 5812 5814 5816 5819 5821 5824 5826 5828 5830 5831 5833 5834
5738 5739 5741 5743 5745 5747 5749 5750 5752 5755 5758 5760 5764 5767 5770 5772 5775 5778 5780 5781 5783 5785 5788 5789 5791 5794 5796 5798 5800 5802 5804 5807 5809 5811 5813 5815 5818 5820 5822 5823 5825 5826 5828 5829
5731 5733 5736 5737 5739 5741 5744 5744 5745 5749 5752 5754 5757 5760 5763 5766 5770 5773 5774 5776 5778 5781 5783 5785 5787 5789 5792 5794 5796 5799 5801 5803 5805 5807 5809 5811 5813 5815 5817 5818 5819 5821 5822 5823
5726 5728 5730 5731 5732 5735 5737 5738 5740 5744 5747 5748 5750 5753 5756 5759 5763 5766 5768 5770 5773 5775 5778 5780 5782 5785 5787 5789 5792 5794 5797 5799 5801 5802 5804 5806 5808 5810 5811 5813 5814 5815 5816 5817
5720 5722 5724 5726 5727 5731 5731 5732 5735 5737 5739 5741 5744 5747 5750 5753 5756 5758 5761 5764 5767 5770 5772 5774 5777 5779 5781 5784 5787 5789 5791 5794 5795 5797 5798 5800 5802 5804 5805 5806 5807 5808 5809 5810
5715 5718 5719 5721 5724 5725 5726 5727 5729 5731 5733 5735 5738 5741 5744 5747 5749 5752 5755 5758 5761 5763 5766 5768 5770 5772 5775 5778 5781 5783 5786 5788 5790 5791 5793 5794 5796 5797 5798 5799 5800 5801 5801 5802
5710 5712 5714 5716 5717 5719 5720 5722 5723 5725 5727 5729 5732 5735 5738 5740 5743 5746 5749 5752 5755 5757 5759 5762 5764 5766 5769 5772 5774 5777 5779 5782 5784 5786 5787 5788 5789 5790 5791 5792 5792 5793 5793 5793
5705 5707 5709 5710 5712 5714 5715 5717 5718 5720 5721 5724 5726 5728 5731 5734 5737 5740 5743 5746 5748 5751 5753 5755 5758 5760 5763 5766 5768 5771 5773 5775 5778 5779 5780 5781 5782 5783 5784 5784 5784 5785 5785 5785
5700 5702 5704 5706 5707 5709 5711 5712 5713 5715 5716 5718 5720 5722 5725 5727 5730 5734 5737 5739 5742 5744 5747 5749 5752 5755 5757 5759 5762 5764 5766 5769 5771 5772 5773 5773 5774 5775 5776 5776 5776 5776 5776 5776